This is the latest recevied weather packets stored in our database for station/object DL4JCP-6. If no packets are shown the sender has not sent any weather packets the latest 10 day(s).
| Time | Temp. | Humidity | Pressure | Rain* | Wind** | Luminosity | Snow |
|---|---|---|---|---|---|---|---|
| 1778001790 | 13.89° C | 93% | 1006.9 hPa | 0.25 mm | - | - | - |
| 1778001494 | 13.89° C | 93% | 1007 hPa | 0.25 mm | - | - | - |
| 1778001492 | 13.89° C | 93% | 1007 hPa | 0.25 mm | - | - | - |
| 1778001192 | 13.89° C | 93% | 1007 hPa | 0.51 mm | - | - | - |
| 1778000892 | 14.44° C | 93% | 1007.2 hPa | 0.76 mm | - | - | - |
| 1778000593 | 14.44° C | 93% | 1007.3 hPa | 1.27 mm | - | - | - |
| 1778000591 | 14.44° C | 93% | 1007.3 hPa | 1.27 mm | - | - | - |
| 1778000291 | 14.44° C | 93% | 1007.3 hPa | 1.27 mm | - | - | - |
| 1777999992 | 14.44° C | 93% | 1007.4 hPa | 1.27 mm | - | - | - |
| 1777999694 | 14.44° C | 93% | 1007.4 hPa | 1.27 mm | - | - | - |
| 1777999691 | 14.44° C | 93% | 1007.4 hPa | 1.27 mm | - | - | - |
| 1777999391 | 14.44° C | 92% | 1007.3 hPa | 1.27 mm | - | - | - |
| 1777999091 | 14.44° C | 92% | 1007.5 hPa | 1.27 mm | - | - | - |
| 1777998791 | 14.44° C | 92% | 1007.6 hPa | 1.27 mm | - | - | - |
| 1777998791 | 14.44° C | 92% | 1007.6 hPa | 1.27 mm | - | - | - |
| 1777998491 | 14.44° C | 92% | 1007.6 hPa | 1.27 mm | - | - | - |
| 1777998190 | 14.44° C | 91% | 1007.7 hPa | 1.02 mm | - | - | - |
| 1777997891 | 15° C | 91% | 1007.7 hPa | 1.02 mm | - | - | - |
| 1777997891 | 15° C | 91% | 1007.7 hPa | 1.02 mm | - | - | - |
| 1777997590 | 15° C | 91% | 1008.2 hPa | 0.76 mm | - | - | - |
| 1777997291 | 15° C | 91% | 1008.2 hPa | 0.51 mm | - | - | - |
| 1777996991 | 15° C | 91% | 1008 hPa | 0 mm | - | - | - |
| 1777996991 | 15° C | 91% | 1008 hPa | 0 mm | - | - | - |
| 1777996691 | 15.56° C | 90% | 1008 hPa | 0 mm | - | - | - |
| 1777996391 | 15.56° C | 90% | 1008 hPa | 0 mm | - | - | - |
* Rain latest hour (hover to see other rain measurements)
** Current wind speed in m/s (hover to see current wind gust speed)